weather.gov     
National Weather Service

Terminal Aerodrome Forecast
NWS Homepage
This page is being discontinued on March 12, 2014.
The same data is available at this site. Please update your bookmarks.
Thank you, and we apologize for the inconvenience.
Please send an email to SR-SRH.Webmaster@noaa.gov with any concerns.


Current Version
Previous Version:    01  02  03  04  05  06  07  08  09  10  11  12  13  14  15  16  17  18  19  20  21  22  23  24  25  26  27  28  29  30  
   31  32  33  
[Printable]
627
FTUS43 KLBF 222300
TAFLBF
TAF
KLBF 222320Z 2300/2324 13014KT P6SM -SHRA BKN060 OVC100
     FM230300 13010KT P6SM OVC070
     FM230700 16010KT P6SM -SHRA SCT020 OVC040
     FM231200 17009KT P6SM OVC050
     FM231600 20009G15KT P6SM BKN100
     FM232000 20011G18KT P6SM SCT250=


U.S. Dept. of Commerce
NOAA National Weather Service
1325 East West Highway
Silver Spring, MD 20910
E-mail: w-nws.webmaster@noaa.gov
Page last modified: May 16, 2007
NATIONAL WEATHER SERVICE: for Safety, for Work, for Fun - FOR LIFE